Starlink 31989

operational
NORAD ID: 59959 Int'l Des: 2024-107 Owner: SPXS Country: US Constellation: starlink
LEOCIRCULAR

About Starlink 31989

Description loading...

Live Position

Loading 3D Globe...

Upcoming Passes

Altitude History

Altitude vs Time

uPlot chart will show altitude changes over time

Two-Line Element Set

1 59959U 24107Q 25354.62933127 .00001096 00000-0 49143-4 0 9994
2 59959 53.1600 72.6417 0001343 69.1340 290.9804 15.30192860 87692
Epoch: Dec 20, 2025 • Age: 10 hours

Current Status

Altitude 475.0 km
Velocity 7.63 km/s
Sub-Earth Point 19.73°N, 12.81°W
Launch Date Jun 5, 2024
Age 1.5 years
Type internet

Technical Details

Classification Payload
Mass 730.00 kg
Dry Mass 700.00 kg
Total Mass 730.00 kg
Length 0.30 m
Diameter 4.10 m
Span 29.00 m
Shape Box + pan
Manufacturer SPXS
Bus Type Starlink V2M
Phase Status In Orbit
Owner/State SPXS/US

Large Constellations

Loading constellations...